• MPC Preparation (Info)

  • MPEC 2000-C14 : 2000 BJ19

    The following Minor Planet Electronic Circular may be linked-to from your own Web pages, but must not otherwise be redistributed electronically.

    A form allowing access to any MPEC is at the bottom of this page.


    Read MPEC 2000-C13 Read MPEC 2000-C15


    M.P.E.C. 2000-C14                                Issued 2000 Feb. 3, 17:39 UT
    
         The Minor Planet Electronic Circulars contain information on unusual
             minor planets and routine data on comets.  They are published
       on behalf of Commission 20 of the International Astronomical Union by the
              Minor Planet Center, Smithsonian Astrophysical Observatory,
                              Cambridge, MA 02138, U.S.A.
    
                 Prepared using the Tamkin Foundation Computer Network
    
                 BMARSDEN@CFA.HARVARD.EDU or GWILLIAMS@CFA.HARVARD.EDU
              URL http://cfa-www.harvard.edu/iau/mpc.html  ISSN 1523-6714
    
                                       2000 BJ19
    
    Observations:
         K00B19J* C2000 01 30.28259 09 07 48.52 +17 31 13.9          19.0 R      703
         K00B19J  C2000 01 30.29434 09 07 46.95 +17 31 26.1          18.5 R      703
         K00B19J  C2000 01 30.30607 09 07 45.48 +17 31 38.9          18.4 R      703
         K00B19J  C2000 01 30.31778 09 07 43.91 +17 31 50.5          18.6 R      703
         K00B19J  C2000 01 31.15103 09 05 57.68 +17 46 29.1          18.0        704
         K00B19J  C2000 01 31.19607 09 05 51.79 +17 47 17.8          18.3        704
         K00B19J  C2000 01 31.21115 09 05 49.86 +17 47 34.2          18.1        704
         K00B19J  C2000 02 01.86299 09 02 16.10 +18 16 36.1          18.0 R      046
         K00B19J  C2000 02 01.86449 09 02 15.88 +18 16 37.6                      046
         K00B19J  C2000 02 01.86558 09 02 15.74 +18 16 38.5                      046
         K00B19J  C2000 02 01.86659 09 02 15.67 +18 16 39.8          17.8 R      046
         K00B19J  C2000 02 02.01929 09 01 55.42 +18 19 20.8                      118
         K00B19J  C2000 02 02.02962 09 01 54.05 +18 19 31.5          18   R      118
         K00B19J  C2000 02 02.03317 09 01 53.58 +18 19 35.4                      118
         K00B19J  C2000 02 02.24451 09 01 26.25 +18 23 19.5          18.2        704
         K00B19J  C2000 02 02.25891 09 01 24.33 +18 23 34.9          18.6        704
         K00B19J  C2000 02 02.27334 09 01 22.37 +18 23 49.9          18.6        704
         K00B19J  C2000 02 02.28775 09 01 20.48 +18 24 04.9          18.5        704
         K00B19J  C2000 02 02.30216 09 01 18.56 +18 24 20.5          18.4        704
         K00B19J  C2000 02 02.51331 09 00 51.17 +18 28 09.0          18.2 R      422
         K00B19J  C2000 02 02.51829 09 00 50.46 +18 28 14.5          18.6 R      422
         K00B19J  C2000 02 02.51895 09 00 50.36 +18 28 15.1          18.2 R      422
         K00B19J  C2000 02 03.14792 08 59 28.11 +18 39 07.8          18.5 R      858
         K00B19J  C2000 02 03.15176 08 59 27.61 +18 39 12.0          18.5 R      858
         K00B19J  C2000 02 03.15571 08 59 27.08 +18 39 16.3          18.4 R      858
         K00B19J FC2000 02 03.29317 08 59 08.81 +18 41 40.7                      670
         K00B19J FC2000 02 03.34016 08 59 02.55 +18 42 29.3                      670
    
    Observer details:
    046 Klet.  Observers M. Tichy, Z. Moravec.  0.57-m f/5.2 reflector + CCD.
    118 Modra.  Observers A. Galad, P. Koleny.  0.6-m f/5.5 reflector + CCD.
    422 Loomberah.  Observer G. J. Garradd.  0.45-m f/5.4 reflector + CCD.
    670 Camarillo.  Observer J. E. Rogers.  0.30-m f/6.7 Helin Telescope + CCD.
    703 Catalina Sky Survey.  Observers T. B. Spahr, S. M. Larson.  0.41-m f/3
        Schmidt + CCD.
    704 Lincoln Laboratory ETS, New Mexico.  Observers M. Blythe, F. Shelly,
        M. Bezpalko, M. Elowitz, R. Huber.  Measurers J. Stuart, H. Viggh,
        R. Sayer, J. B. Evans.  1.0-m f/2.15 reflector + CCD.
    858 Tebbutt Observatory, Edgewood.  Observer F. B. Zoltowski.  0.3-m f/3.3
        Schmidt-Cassegrain + CCD.
    
    Orbital elements:
    2000 BJ19
    Epoch 2000 Jan. 17.0 TT = JDT 2451560.5                 Williams
    M 199.67980              (2000.0)            P               Q
    n   0.66597450     Peri.  175.26482     +0.60650844     +0.68292903
    a   1.2986665      Node   131.36201     -0.74612311     +0.66578696
    e   0.7760686      Incl.   32.85015     -0.27467765     -0.30055891
    P   1.48           H   16.3           G   0.15
    From 27 observations 2000 Jan. 30-Feb. 3.
    
    Ephemeris:
    2000 BJ19                a,e,i = 1.30, 0.78, 33                  q = 0.2908
    Date    TT    R. A. (2000) Decl.     Delta      r     Elong.  Phase     V
    2000 01 27    09 14.64   +16 33.6    1.296    2.273   170.3     4.2    19.0
    2000 02 01    09 04.13   +18 01.5    1.279    2.263   177.8     0.9    18.8
    2000 02 06    08 53.18   +19 28.6    1.271    2.253   173.5     2.8    18.9
    2000 02 11    08 42.11   +20 52.6    1.272    2.242   165.6     6.3    19.1
    2000 02 16    08 31.26   +22 11.1    1.283    2.229   157.8     9.6    19.2
    2000 02 21    08 20.93   +23 22.8    1.303    2.216   150.2    12.8    19.4
    2000 02 26    08 11.40   +24 26.6    1.329    2.201   142.8    15.8    19.5
    2000 03 02    08 02.88   +25 22.3    1.363    2.185   135.7    18.5    19.6
    2000 03 07    07 55.51   +26 10.2    1.402    2.168   128.9    20.9    19.7
    2000 03 12    07 49.39   +26 50.9    1.446    2.149   122.4    23.0    19.9
    2000 03 17    07 44.54   +27 25.1    1.493    2.130   116.3    24.8    20.0
    
    2000 03 27    07 38.51   +28 17.3    1.593    2.087   104.9    27.5    20.1
    2000 04 06    07 36.97   +28 52.6    1.696    2.039    94.7    29.3    20.3
    2000 04 16    07 39.35   +29 15.1    1.795    1.985    85.4    30.3    20.4
    2000 04 26    07 44.99   +29 27.5    1.885    1.926    77.0    30.6    20.4
    2000 05 06    07 53.39   +29 31.3    1.964    1.862    69.2    30.4    20.4
    2000 05 16    08 04.13   +29 27.0    2.028    1.791    62.0    29.9    20.4
    2000 05 26    08 16.90   +29 14.8    2.074    1.713    55.3    29.1    20.3
    2000 06 05    08 31.49   +28 54.4    2.101    1.629    49.1    28.1    20.2
    2000 06 15    08 47.77   +28 24.9    2.106    1.536    43.4    27.0    20.1
    2000 06 25    09 05.68   +27 45.3    2.089    1.436    38.3    26.0    19.9
    2000 07 05    09 25.28   +26 53.8    2.047    1.326    33.6    25.1    19.6
    
    Gareth V. Williams           (C) Copyright 2000 MPC           M.P.E.C. 2000-C14
    

    Read MPEC 2000-C13 Read MPEC 2000-C15


    MPEC number:

    Enter an MPEC number in one of the following forms:

    • 1997-B01 (the full form)
    • J97B01 (the packed version of the full form)
    • B01 (the abbreviated form)